Weather History for Ramona, CA

Change the Weather History Date:

Friday, May 16, 2014

  Actual Average Record
Temperature  
Mean Temperature 74 °F 62 °F  
Max Temperature 96 °F 75 °F 97 °F (2008)
Min Temperature 51 °F 48 °F 35 °F (2011)
Degree Days  
Heating Degree Days 0 4  
Month to date heating degree days 51 83  
Since 1 July heating degree days 1913 2475  
Cooling Degree Days 9 1  
Month to date cooling degree days 43 4  
Year to date cooling degree days 52 9  
Growing Degree Days 23 (Base 50)    
Moisture  
Dew Point 22 °F    
Average Humidity 23    
Maximum Humidity 41    
Minimum Humidity 5    
Precipitation  
Precipitation 0.00 in 0.01 in 0.04 in (2000)
Month to date precipitation T 0.27  
Year to date precipitation 5.09 11.18  
Since 1 July precipitation 7.85 15.89  
Snow  
Snow 0.00 in - - ()
Month to date snowfall 0.0  
Year to date snowfall 0.0  
Since 1 July snowfall 0.0  
Snow Depth 0.00 in    
Sea Level Pressure  
Sea Level Pressure 29.95 in    
Wind  
Wind Speed 6 mph (WSW)    
Max Wind Speed 18 mph    
Max Gust Speed 23 mph    
Visibility 10 miles    
Events      
T = Trace of Precipitation, MM = Missing Value Source: NWS Daily Summary

Daily Weather History Graph

Daily Weather History Graph

Search for Another Location

Airport:

Trip Planner

Search our weather history database for the weather conditions in past years. The results will help you decide how hot, cold, wet, or windy it might be!

Date:

Astronomy

May. 16, 2014 Rise Set
Actual Time 5:47 AM PDT 7:40 PM PDT
Civil Twilight 5:20 AM PDT 8:08 PM PDT
Nautical Twilight 4:47 AM PDT 8:41 PM PDT
Astronomical Twilight 4:11 AM PDT 9:16 PM PDT
Moon 9:52 PM PDT (5/16) 7:33 AM PDT (5/16)
Length of Visible Light 14h 48m
Length of Day
13h 53m
Waning Gibbous, 95% of the Moon is Illuminated
May 16
Waning Gibbous
May 21
Last Quarter
May 28
New
Jun 5
First Quarter
Jun 12
Full

Hourly Weather History & Observations

Time (PDT) Temp. Dew Point Humidity Pressure Visibility Wind Dir Wind Speed Gust Speed Precip Events Conditions
12:53 AM 57.9 °F 25.0 °F 28% 29.99 in 10.0 mi Calm Calm - N/A   Clear
1:53 AM 57.0 °F 28.0 °F 33% 29.98 in 10.0 mi Calm Calm - N/A   Clear
2:53 AM 52.0 °F 27.0 °F 38% 29.98 in 10.0 mi East 3.5 mph - N/A   Clear
3:53 AM 53.1 °F 28.0 °F 38% 29.97 in 10.0 mi ESE 3.5 mph - N/A   Clear
4:53 AM 53.1 °F 30.0 °F 41% 29.97 in 10.0 mi SE 4.6 mph - N/A   Clear
5:53 AM 51.1 °F 28.9 °F 43% 29.97 in 9.0 mi SSE 4.6 mph - N/A   Clear
6:53 AM 57.9 °F 30.0 °F 35% 29.98 in 7.0 mi Calm Calm - N/A   Clear
7:53 AM 73.0 °F 28.0 °F 19% 29.98 in 7.0 mi Calm Calm - N/A   Clear
8:53 AM 84.0 °F 16.0 °F 8% 29.99 in 9.0 mi WNW 5.8 mph - N/A   Clear
9:53 AM 88.0 °F 16.0 °F 7% 29.98 in 10.0 mi SSW 3.5 mph - N/A   Clear
10:53 AM 91.9 °F 16.0 °F 6% 29.98 in 10.0 mi WNW 9.2 mph - N/A   Clear
11:53 AM 93.9 °F 10.9 °F 5% 29.96 in 10.0 mi West 10.4 mph - N/A   Clear
12:53 PM 93.9 °F 12.9 °F 5% 29.95 in 10.0 mi WSW 5.8 mph 16.1 mph N/A   Clear
1:53 PM 95.0 °F 12.0 °F 5% 29.94 in 10.0 mi WSW 12.7 mph 21.9 mph N/A   Clear
2:53 PM 93.9 °F 15.1 °F 6% 29.94 in 10.0 mi West 17.3 mph - N/A   Clear
3:53 PM 91.9 °F 10.9 °F 5% 29.92 in 10.0 mi West 15.0 mph - N/A   Clear
4:53 PM 90.0 °F 21.9 °F 8% 29.92 in 10.0 mi WSW 12.7 mph - N/A   Clear
5:53 PM 88.0 °F 21.9 °F 9% 29.91 in 10.0 mi West 12.7 mph - N/A   Clear
6:53 PM 84.9 °F 19.0 °F 9% 29.91 in 10.0 mi WNW 5.8 mph - N/A   Clear
8:53 PM 71.1 °F 28.0 °F 20% 29.91 in 10.0 mi Calm Calm - N/A   Clear
9:53 PM 63.0 °F 28.0 °F 27% 29.92 in 10.0 mi ESE 3.5 mph - N/A   Clear
10:53 PM 63.0 °F 30.0 °F 29% 29.92 in 10.0 mi Calm Calm - N/A   Clear
11:53 PM 59.0 °F 28.9 °F 32% 29.92 in 10.0 mi Calm Calm - N/A   Clear